Savannah, GA

3:21 AM EDT on June 25, 2017 (GMT -0400)
Savannah International

Weather History for KSAV - March, 2013

Change the Weather History Date:

Tuesday, March 12, 2013

  Actual Average Record
Temperature  
Mean Temperature 61 °F 58 °F  
Max Temperature 70 °F 70 °F 90 °F (1955)
Min Temperature 52 °F 47 °F 26 °F (1969)
Degree Days  
Heating Degree Days 4 7  
Month to date heating degree days 175 102  
Since 1 July heating degree days 1397 1619  
Cooling Degree Days 0 1  
Month to date cooling degree days 0 12  
Year to date cooling degree days 28 22  
Growing Degree Days 12 (Base 50)    
Moisture  
Dew Point 55 °F    
Average Humidity 65    
Maximum Humidity 93    
Minimum Humidity 37    
Precipitation  
Precipitation 0.10 in 0.12 in 1.97 in (1980)
Month to date precipitation 0.14 1.43  
Year to date precipitation 10.44 7.91  
Snow  
Snow 0.00 in 0.00 in - ()
Month to date snowfall 0.0  
Since 1 July snowfall 0.0 0.3  
Snow Depth 0.00 in    
Sea Level Pressure  
Sea Level Pressure 29.89 in    
Wind  
Wind Speed 11 mph (WSW)    
Max Wind Speed 22 mph    
Max Gust Speed 31 mph    
Visibility 8 miles    
Events Rain    
T = Trace of Precipitation, MM = Missing Value Source: NWS Daily Summary

Daily Weather History Graph

Daily Weather History Graph

Search for Another Location

Airport or City:

Trip Planner

Search our weather history database for the weather conditions in past years. The results will help you decide how hot, cold, wet, or windy it might be!

Date:

Astronomy

Mar. 12, 2013 Rise Set
Actual Time 7:38 AM EDT 7:30 PM EDT
Civil Twilight 7:14 AM EDT 7:55 PM EDT
Nautical Twilight 6:45 AM EDT 8:23 PM EDT
Astronomical Twilight 6:17 AM EDT 8:52 PM EDT
Moon 7:49 AM EDT (3/12) 8:37 PM EDT (3/12)
Length of Visible Light 12h 41m
Length of Day
11h 52m
New Moon, 1% of the Moon is Illuminated
Mar 12
New Moon
Mar 19
First Quarter
Mar 27
Full
Apr 3
Last Quarter
Apr 10
New

Hourly Weather History & Observations

Time (EDT) Temp. Dew Point Humidity Pressure Visibility Wind Dir Wind Speed Gust Speed Precip Events Conditions
12:53 AM 64.9 °F 57.9 °F 78% 29.87 in 10.0 mi South 17.3 mph 26.5 mph 0.00 in Rain Light Rain
1:53 AM 64.9 °F 59.0 °F 81% 29.85 in 10.0 mi South 19.6 mph 28.8 mph 0.00 in Rain Light Rain
2:53 AM 64.9 °F 60.1 °F 84% 29.87 in 10.0 mi SSW 17.3 mph 24.2 mph 0.00 in Rain Light Rain
3:53 AM 64.9 °F 61.0 °F 87% 29.85 in 10.0 mi SSW 10.4 mph - 0.00 in   Overcast
4:53 AM 64.9 °F 61.0 °F 87% 29.85 in 10.0 mi South 12.7 mph - 0.00 in Rain Light Rain
5:53 AM 64.0 °F 61.0 °F 90% 29.85 in 7.0 mi South 10.4 mph - 0.04 in Rain Rain
6:53 AM 63.0 °F 61.0 °F 93% 29.85 in 10.0 mi South 10.4 mph - 0.03 in Rain Light Rain
7:53 AM 63.0 °F 61.0 °F 93% 29.86 in 7.0 mi South 11.5 mph - 0.01 in Rain Light Rain
8:45 AM 62.6 °F 60.8 °F 94% 29.88 in 2.5 mi South 10.4 mph - 0.00 in Rain Light Rain
8:53 AM 63.0 °F 61.0 °F 93% 29.88 in 2.5 mi South 10.4 mph - 0.00 in Rain Light Rain
9:12 AM 62.6 °F 60.8 °F 94% 29.88 in 2.5 mi South 9.2 mph - 0.01 in Rain Light Rain
9:28 AM 64.4 °F 60.8 °F 88% 29.88 in 2.5 mi South 13.8 mph - 0.01 in Rain Light Rain
9:29 AM 64.4 °F 60.8 °F 88% 29.88 in 7.0 mi SSW 12.7 mph - 0.01 in Rain Light Rain
9:53 AM 64.0 °F 61.0 °F 90% 29.88 in 8.0 mi SSW 11.5 mph - 0.01 in   Overcast
10:00 AM - - N/A% - - North - - N/A   Sand
10:53 AM 64.9 °F 61.0 °F 87% 29.89 in 10.0 mi SW 9.2 mph - N/A   Overcast
11:06 AM 64.4 °F 62.6 °F 94% 29.90 in 2.0 mi WSW 11.5 mph - 0.00 in   Light Drizzle
11:53 AM 63.0 °F 61.0 °F 93% 29.90 in 2.0 mi West 9.2 mph - 0.00 in   Light Drizzle
12:07 PM 64.4 °F 60.8 °F 88% 29.90 in 2.0 mi West 8.1 mph - 0.01 in   Overcast
12:08 PM 64.4 °F 60.8 °F 88% 29.90 in 7.0 mi West 8.1 mph - 0.01 in   Overcast
12:49 PM 60.8 °F 57.2 °F 88% 29.90 in 10.0 mi West 10.4 mph - 0.01 in   Overcast
12:53 PM 60.1 °F 57.9 °F 93% 29.90 in 10.0 mi WNW 12.7 mph - 0.01 in   Overcast
1:53 PM 62.1 °F 57.0 °F 84% 29.89 in 10.0 mi West 11.5 mph - N/A   Overcast
2:27 PM 62.6 °F 57.2 °F 82% 29.88 in 10.0 mi West 11.5 mph - N/A   Overcast
2:39 PM 64.4 °F 55.4 °F 73% 29.88 in 10.0 mi West 12.7 mph - N/A   Mostly Cloudy
2:53 PM 64.9 °F 52.0 °F 63% 29.88 in 10.0 mi West 12.7 mph - N/A   Mostly Cloudy
3:53 PM 68.0 °F 48.0 °F 49% 29.86 in 10.0 mi WSW 10.4 mph - N/A   Mostly Cloudy
4:53 PM 70.0 °F 42.1 °F 36% 29.86 in 10.0 mi West 18.4 mph 24.2 mph N/A   Mostly Cloudy
5:53 PM 68.0 °F 41.0 °F 37% 29.88 in 10.0 mi West 9.2 mph - N/A   Mostly Cloudy
6:53 PM 66.9 °F 41.0 °F 39% 29.90 in 10.0 mi West 10.4 mph - N/A   Mostly Cloudy
7:53 PM 60.1 °F 43.0 °F 53% 29.92 in 10.0 mi West 6.9 mph - N/A   Mostly Cloudy
8:53 PM 55.9 °F 43.0 °F 62% 29.94 in 10.0 mi West 6.9 mph - N/A   Scattered Clouds
9:53 PM 55.0 °F 42.1 °F 62% 29.96 in 10.0 mi West 6.9 mph - N/A   Partly Cloudy
10:53 PM 53.1 °F 42.1 °F 66% 29.99 in 10.0 mi West 9.2 mph - N/A   Partly Cloudy
11:53 PM 54.0 °F 39.0 °F 57% 30.01 in 10.0 mi West 8.1 mph - N/A   Clear